| time (UTC) | temp F | wind direction | speed MPH | gust MPH | rain 1hr in | rain 24hr in | rain mn in | humidity % | barometer mb |
| 20260510230324 | 75 | 38 | 1.0 | 7.0 | 0.00 | 0.00 | 0.00 | 44 | 1014.6 |
| 20260510225334 | 74 | 17 | 2.0 | 8.0 | 0.00 | 0.00 | 0.00 | 45 | 1014.6 |
| 20260510224327 | 74 | 38 | 1.0 | 9.0 | 0.00 | 0.00 | 0.00 | 46 | 1015.0 |
| 20260510223339 | 74 | 44 | 2.0 | 7.0 | 0.00 | 0.00 | 0.00 | 48 | 1015.0 |
| 20260510222331 | 74 | 32 | 0.0 | 7.0 | 0.00 | 0.00 | 0.00 | 49 | 1015.1 |
| 20260510221321 | 73 | 29 | 1.0 | 6.0 | 0.00 | 0.00 | 0.00 | 45 | 1015.3 |
| 20260510220316 | 73 | 126 | 0.0 | 5.0 | 0.00 | 0.00 | 0.00 | 52 | 1015.3 |
| 20260510215330 | 72 | 85 | 1.0 | 6.0 | 0.00 | 0.00 | 0.00 | 50 | 1015.5 |
| 20260510214328 | 72 | 31 | 1.0 | 9.0 | 0.00 | 0.00 | 0.00 | 52 | 1015.6 |
| 20260510213320 | 71 | 156 | 0.0 | 6.0 | 0.00 | 0.00 | 0.00 | 54 | 1015.6 |
| 20260510212335 | 71 | 94 | 1.0 | 9.0 | 0.00 | 0.00 | 0.00 | 53 | 1015.6 |
| 20260510211331 | 70 | 345 | 0.0 | 8.0 | 0.00 | 0.00 | 0.00 | 55 | 1015.7 |
| 20260510210320 | 70 | 71 | 1.0 | 9.0 | 0.00 | 0.00 | 0.00 | 55 | 1015.7 |
| 20260510205334 | 70 | 355 | 1.0 | 6.0 | 0.00 | 0.00 | 0.00 | 55 | 1015.8 |
| 20260510204325 | 69 | 173 | 1.0 | 8.0 | 0.00 | 0.00 | 0.00 | 57 | 1016.0 |
| 20260510203315 | 70 | 64 | 0.0 | 7.0 | 0.00 | 0.00 | 0.00 | 57 | 1016.0 |
| 20260510202351 | 69 | 61 | 4.0 | 9.0 | 0.00 | 0.00 | 0.00 | 60 | 1016.1 |
| 20260510201327 | 69 | 360 | 3.0 | 9.0 | 0.00 | 0.00 | 0.00 | 59 | 1016.2 |
| 20260510200342 | 68 | 293 | 1.0 | 8.0 | 0.00 | 0.00 | 0.00 | 61 | 1016.2 |
| 20260510195330 | 67 | 315 | 1.0 | 8.0 | 0.00 | 0.00 | 0.00 | 61 | 1016.2 |
| 20260510194320 | 67 | 332 | 3.0 | 8.0 | 0.00 | 0.00 | 0.00 | 59 | 1016.2 |
| 20260510193346 | 67 | 26 | 3.0 | 8.0 | 0.00 | 0.00 | 0.00 | 62 | 1016.2 |
| 20260510192335 | 66 | 355 | 2.0 | 6.0 | 0.00 | 0.00 | 0.00 | 60 | 1016.2 |
| 20260510191325 | 66 | 12 | 1.0 | 7.0 | 0.00 | 0.00 | 0.00 | 61 | 1016.3 |
| 20260510190315 | 65 | 132 | 2.0 | 6.0 | 0.00 | 0.00 | 0.00 | 62 | 1016.3 |
| 20260510185332 | 64 | 34 | 1.0 | 7.0 | 0.00 | 0.00 | 0.00 | 62 | 1016.3 |
| 20260510184323 | 64 | 348 | 0.0 | 7.0 | 0.00 | 0.00 | 0.00 | 65 | 1016.3 |
| 20260510183334 | 64 | 326 | 1.0 | 9.0 | 0.00 | 0.00 | 0.00 | 63 | 1016.3 |
| 20260510182324 | 64 | 300 | 1.0 | 6.0 | 0.00 | 0.00 | 0.00 | 62 | 1016.4 |
| 20260510181356 | 64 | 304 | 1.0 | 6.0 | 0.00 | 0.00 | 0.00 | 68 | 1016.5 |
| 20260510180328 | 63 | 17 | 0.0 | 6.0 | 0.00 | 0.00 | 0.00 | 65 | 1016.5 |
| 20260510175319 | 63 | 319 | 0.0 | 7.0 | 0.00 | 0.00 | 0.00 | 65 | 1016.5 |
| 20260510174330 | 63 | 122 | 0.0 | 3.0 | 0.00 | 0.00 | 0.00 | 66 | 1016.2 |
| 20260510173320 | 62 | 110 | 0.0 | 3.0 | 0.00 | 0.00 | 0.00 | 70 | 1016.2 |
| 20260510172332 | 60 | 334 | 0.0 | 4.0 | 0.00 | 0.00 | 0.00 | 69 | 1016.2 |
| 20260510171326 | 60 | 333 | 0.0 | 4.0 | 0.00 | 0.00 | 0.00 | 70 | 1016.2 |
| 20260510170317 | 60 | 298 | 1.0 | 3.0 | 0.00 | 0.00 | 0.00 | 69 | 1016.2 |
| 20260510165315 | 59 | 207 | 0.0 | 0.0 | 0.00 | 0.00 | 0.00 | 69 | 1016.2 |
| 20260510164331 | 59 | 292 | 0.0 | 4.0 | 0.00 | 0.00 | 0.00 | 69 | 1016.1 |
| 20260510163325 | 59 | 296 | 1.0 | 3.0 | 0.00 | 0.00 | 0.00 | 69 | 1016.1 |
| 20260510162320 | 59 | 5 | 0.0 | 1.0 | 0.00 | 0.00 | 0.00 | 72 | 1016.2 |
| 20260510161327 | 58 | 336 | 0.0 | 4.0 | 0.00 | 0.00 | 0.00 | 73 | 1016.2 |
| 20260510160320 | 58 | 18 | 0.0 | 1.0 | 0.00 | 0.00 | 0.00 | 75 | 1016.2 |
| 20260510155351 | 58 | 292 | 0.0 | 1.0 | 0.00 | 0.00 | 0.00 | 74 | 1016.0 |
| 20260510154324 | 57 | 300 | 0.0 | 3.0 | 0.00 | 0.00 | 0.00 | 75 | 1015.8 |
| 20260510153318 | 57 | 294 | 0.0 | 1.0 | 0.00 | 0.00 | 0.00 | 78 | 1015.8 |
| 20260510152328 | 55 | 267 | 0.0 | 0.0 | 0.00 | 0.00 | 0.00 | 80 | 1015.9 |
| 20260510151319 | 55 | 267 | 0.0 | 0.0 | 0.00 | 0.00 | 0.00 | 81 | 1015.8 |
| 20260510150334 | 55 | 267 | 0.0 | 0.0 | 0.00 | 0.00 | 0.00 | 83 | 1015.8 |
| 20260510145328 | 54 | 267 | 0.0 | 0.0 | 0.00 | 0.00 | 0.00 | 85 | 1015.6 |
| 20260510144319 | 53 | 267 | 0.0 | 0.0 | 0.00 | 0.00 | 0.00 | 87 | 1015.5 |
| 20260510143315 | 52 | 267 | 0.0 | 0.0 | 0.00 | 0.00 | 0.00 | 91 | 1015.5 |
| 20260510142329 | 52 | 267 | 0.0 | 0.0 | 0.00 | 0.00 | 0.00 | 94 | 1015.1 |
| 20260510141323 | 51 | 267 | 0.0 | 0.0 | 0.00 | 0.00 | 0.00 | 94 | 1015.1 |
| 20260510140324 | 50 | 267 | 0.0 | 0.0 | 0.00 | 0.00 | 0.00 | 95 | 1015.1 |
| 20260510135336 | 50 | 267 | 0.0 | 0.0 | 0.00 | 0.00 | 0.00 | 95 | 1015.1 |
| 20260510134329 | 50 | 267 | 0.0 | 0.0 | 0.00 | 0.00 | 0.00 | 95 | 1015.1 |
| 20260510133320 | 49 | 267 | 0.0 | 0.0 | 0.00 | 0.00 | 0.00 | 94 | 1015.1 |
| 20260510132331 | 49 | 267 | 0.0 | 0.0 | 0.00 | 0.00 | 0.00 | 94 | 1015.1 |
| 20260510131324 | 49 | 267 | 0.0 | 0.0 | 0.00 | 0.00 | 0.00 | 93 | 1015.0 |
| 20260510130358 | 50 | 267 | 0.0 | 0.0 | 0.00 | 0.00 | 0.00 | 93 | 1015.0 |
| 20260510125328 | 50 | 267 | 0.0 | 0.0 | 0.00 | 0.00 | 0.00 | 93 | 1015.0 |
| 20260510124319 | 50 | 267 | 0.0 | 0.0 | 0.00 | 0.00 | 0.00 | 92 | 1014.7 |
| 20260510123331 | 50 | 267 | 0.0 | 0.0 | 0.00 | 0.00 | 0.00 | 92 | 1014.7 |
| 20260510122322 | 51 | 267 | 0.0 | 0.0 | 0.00 | 0.00 | 0.00 | 92 | 1014.6 |
| 20260510121320 | 51 | 267 | 0.0 | 0.0 | 0.00 | 0.00 | 0.00 | 91 | 1014.6 |
| 20260510120332 | 51 | 267 | 0.0 | 0.0 | 0.00 | 0.00 | 0.00 | 91 | 1014.6 |
| 20260510115342 | 51 | 267 | 0.0 | 0.0 | 0.00 | 0.00 | 0.00 | 90 | 1014.6 |
| 20260510114334 | 51 | 267 | 0.0 | 0.0 | 0.00 | 0.00 | 0.00 | 89 | 1014.5 |
| 20260510113350 | 51 | 267 | 0.0 | 0.0 | 0.00 | 0.00 | 0.00 | 89 | 1014.5 |
| 20260510112324 | 51 | 267 | 0.0 | 0.0 | 0.00 | 0.00 | 0.00 | 89 | 1014.5 |
| 20260510111335 | 52 | 267 | 0.0 | 0.0 | 0.00 | 0.00 | 0.00 | 88 | 1014.4 |
| 20260510110327 | 52 | 269 | 0.0 | 0.0 | 0.00 | 0.00 | 0.00 | 88 | 1014.4 |
| 20260510105318 | 52 | 269 | 0.0 | 0.0 | 0.00 | 0.00 | 0.00 | 89 | 1014.1 |
| 20260510104328 | 52 | 270 | 0.0 | 0.0 | 0.00 | 0.00 | 0.00 | 89 | 1014.0 |
| 20260510103321 | 52 | 270 | 0.0 | 1.0 | 0.00 | 0.00 | 0.00 | 90 | 1014.0 |
| 20260510102318 | 52 | 270 | 0.0 | 0.0 | 0.00 | 0.00 | 0.00 | 89 | 1013.8 |
| 20260510101330 | 52 | 270 | 0.0 | 0.0 | 0.00 | 0.00 | 0.00 | 89 | 1013.6 |
| 20260510100323 | 53 | 270 | 0.0 | 0.0 | 0.00 | 0.00 | 0.00 | 88 | 1013.6 |
| 20260510095335 | 54 | 270 | 0.0 | 0.0 | 0.00 | 0.00 | 0.00 | 86 | 1013.5 |
| 20260510094325 | 54 | 270 | 0.0 | 0.0 | 0.00 | 0.00 | 0.00 | 86 | 1013.5 |
| 20260510093337 | 54 | 270 | 0.0 | 0.0 | 0.00 | 0.00 | 0.00 | 85 | 1013.5 |
| 20260510092329 | 54 | 270 | 0.0 | 0.0 | 0.00 | 0.00 | 0.00 | 85 | 1013.5 |
| 20260510091329 | 55 | 270 | 0.0 | 0.0 | 0.00 | 0.00 | 0.00 | 84 | 1013.5 |
| 20260510090321 | 55 | 270 | 0.0 | 0.0 | 0.00 | 0.00 | 0.00 | 82 | 1013.5 |
| 20260510085332 | 56 | 270 | 0.0 | 0.0 | 0.00 | 0.00 | 0.00 | 80 | 1013.4 |
| 20260510084325 | 56 | 270 | 0.0 | 0.0 | 0.00 | 0.00 | 0.00 | 80 | 1013.3 |
| 20260510083433 | 56 | 270 | 0.0 | 0.0 | 0.00 | 0.00 | 0.00 | 79 | 1013.3 |
| 20260510082352 | 56 | 270 | 0.0 | 0.0 | 0.00 | 0.00 | 0.00 | 79 | 1013.3 |
| 20260510081321 | 56 | 270 | 0.0 | 0.0 | 0.00 | 0.00 | 0.00 | 81 | 1013.4 |
| 20260510080353 | 56 | 270 | 0.0 | 0.0 | 0.00 | 0.00 | 0.00 | 81 | 1013.4 |
| 20260510075322 | 56 | 270 | 0.0 | 0.0 | 0.00 | 0.00 | 0.00 | 84 | 1013.2 |
| 20260510074317 | 57 | 270 | 0.0 | 0.0 | 0.00 | 0.00 | 0.00 | 83 | 1013.3 |
| 20260510073350 | 57 | 270 | 0.0 | 0.0 | 0.00 | 0.00 | 0.00 | 82 | 1013.3 |
| 20260510072320 | 57 | 270 | 0.0 | 0.0 | 0.00 | 0.00 | 0.00 | 83 | 1013.1 |
| 20260510071333 | 58 | 270 | 0.0 | 0.0 | 0.00 | 0.00 | 0.00 | 84 | 1013.0 |
| 20260510070323 | 58 | 270 | 0.0 | 0.0 | 0.00 | 0.00 | 0.00 | 86 | 1013.0 |
| 20260510065320 | 59 | 270 | 0.0 | 0.0 | 0.00 | 0.00 | 0.00 | 85 | 1012.9 |
| 20260510064350 | 59 | 270 | 0.0 | 0.0 | 0.00 | 0.00 | 0.00 | 83 | 1012.8 |
| 20260510063327 | 60 | 270 | 0.0 | 0.0 | 0.00 | 0.00 | 0.00 | 81 | 1012.8 |
| 20260510062320 | 60 | 270 | 0.0 | 0.0 | 0.00 | 0.00 | 0.00 | 79 | 1012.7 |
| 20260510061319 | 61 | 270 | 0.0 | 0.0 | 0.00 | 0.00 | 0.00 | 78 | 1012.6 |
| 20260510060315 | 62 | 270 | 0.0 | 0.0 | 0.00 | 0.00 | 0.00 | 75 | 1012.6 |
| 20260510055330 | 63 | 270 | 0.0 | 0.0 | 0.00 | 0.00 | 0.00 | 72 | 1012.6 |
| 20260510054340 | 64 | 270 | 0.0 | 0.0 | 0.00 | 0.00 | 0.00 | 71 | 1012.6 |
| 20260510053350 | 65 | 270 | 0.0 | 0.0 | 0.00 | 0.00 | 0.00 | 71 | 1012.6 |
| 20260510052326 | 66 | 270 | 0.0 | 0.0 | 0.00 | 0.00 | 0.00 | 64 | 1012.5 |
| 20260510051335 | 67 | 270 | 0.0 | 0.0 | 0.00 | 0.00 | 0.00 | 60 | 1012.5 |
| 20260510050328 | 67 | 271 | 0.0 | 2.0 | 0.00 | 0.00 | 0.00 | 59 | 1012.5 |
| 20260510045326 | 68 | 306 | 0.0 | 5.0 | 0.00 | 0.00 | 0.00 | 58 | 1012.3 |
| 20260510044316 | 68 | 336 | 0.0 | 3.0 | 0.00 | 0.00 | 0.00 | 58 | 1012.0 |
| 20260510043333 | 68 | 261 | 0.0 | 1.0 | 0.00 | 0.00 | 0.00 | 58 | 1012.0 |
| 20260510042342 | 69 | 337 | 0.0 | 4.0 | 0.00 | 0.00 | 0.00 | 57 | 1011.8 |
| 20260510041330 | 69 | 295 | 0.0 | 0.0 | 0.00 | 0.00 | 0.00 | 58 | 1011.4 |
| 20260510040348 | 70 | 324 | 0.0 | 0.0 | 0.00 | 0.00 | 0.00 | 56 | 1011.4 |
| 20260510035318 | 71 | 285 | 0.0 | 0.0 | 0.00 | 0.00 | 0.00 | 56 | 1011.3 |
| 20260510034351 | 72 | 316 | 0.0 | 0.0 | 0.00 | 0.00 | 0.00 | 56 | 1010.9 |
| 20260510033324 | 73 | 316 | 0.0 | 0.0 | 0.00 | 0.00 | 0.00 | 54 | 1010.9 |
| 20260510032316 | 73 | 304 | 0.0 | 1.0 | 0.00 | 0.00 | 0.00 | 53 | 1010.8 |
| 20260510031330 | 74 | 309 | 0.0 | 5.0 | 0.00 | 0.00 | 0.00 | 52 | 1010.6 |
| 20260510030322 | 75 | 273 | 0.0 | 4.0 | 0.00 | 0.00 | 0.00 | 51 | 1010.6 |
| 20260510025330 | 76 | 300 | 0.0 | 5.0 | 0.00 | 0.00 | 0.00 | 50 | 1010.4 |
| 20260510024325 | 77 | 294 | 0.0 | 4.0 | 0.00 | 0.00 | 0.00 | 48 | 1010.3 |
| 20260510023336 | 78 | 294 | 0.0 | 7.0 | 0.00 | 0.00 | 0.00 | 47 | 1010.3 |
| 20260510022326 | 79 | 320 | 0.0 | 4.0 | 0.00 | 0.00 | 0.00 | 45 | 1010.0 |
| 20260510021323 | 80 | 299 | 0.0 | 3.0 | 0.00 | 0.00 | 0.00 | 43 | 1010.0 |
| 20260510020317 | 81 | 30 | 1.0 | 5.0 | 0.00 | 0.00 | 0.00 | 41 | 1010.0 |
| 20260510015328 | 83 | 337 | 0.0 | 0.0 | 0.00 | 0.00 | 0.00 | 34 | 1009.9 |
| 20260510014355 | 83 | 337 | 0.0 | 3.0 | 0.00 | 0.00 | 0.00 | 32 | 1009.9 |
| 20260510013328 | 83 | 17 | 0.0 | 1.0 | 0.00 | 0.00 | 0.00 | 33 | 1009.9 |
| 20260510012326 | 83 | 24 | 0.0 | 3.0 | 0.00 | 0.00 | 0.00 | 32 | 1009.9 |
| 20260510011321 | 83 | 329 | 0.0 | 6.0 | 0.00 | 0.00 | 0.00 | 34 | 1009.9 |
| 20260510010353 | 83 | 50 | 0.0 | 4.0 | 0.00 | 0.00 | 0.00 | 34 | 1009.9 |
| 20260510005322 | 84 | 11 | 0.0 | 2.0 | 0.00 | 0.00 | 0.00 | 35 | 1009.9 |
| 20260510004335 | 84 | 5 | 0.0 | 6.0 | 0.00 | 0.00 | 0.00 | 34 | 1009.9 |
| 20260510003329 | 84 | 44 | 0.0 | 5.0 | 0.00 | 0.00 | 0.00 | 38 | 1009.9 |
| 20260510002320 | 84 | 294 | 1.0 | 6.0 | 0.00 | 0.00 | 0.00 | 33 | 1009.9 |
| 20260510001331 | 84 | 349 | 0.0 | 4.0 | 0.00 | 0.00 | 0.00 | 40 | 1010.1 |
| 20260510000348 | 84 | 322 | 0.0 | 2.0 | 0.00 | 0.00 | 0.00 | 33 | 1010.1 |
| 20260509235314 | 84 | 5 | 0.0 | 4.0 | 0.00 | 0.00 | 0.00 | 30 | 1010.3 |
| 20260509234314 | 84 | 15 | 0.0 | 4.0 | 0.00 | 0.00 | 0.00 | 28 | 1010.3 |
| 20260509233348 | 84 | 335 | 0.0 | 6.0 | 0.00 | 0.00 | 0.00 | 29 | 1010.3 |
| 20260509232325 | 84 | 302 | 0.0 | 3.0 | 0.00 | 0.00 | 0.00 | 28 | 1010.3 |
| 20260509231336 | 84 | 333 | 1.0 | 5.0 | 0.00 | 0.00 | 0.00 | 29 | 1010.4 |